Location: Unspecified
(0.0000°N, 0.0000°E)
Time: 23:44:58
(UTC+00:00)

N. Korean satellite - Pass Details

Date: 30 April 2017
Orbit: 462 x 516 km, 97.2° (Epoch: 15 August)

Event Time Altitude Azimuth Distance (km) Brightness Sun altitude
Rises 18:36:04 0° 167° (SSE) 2,486 9.9 -9.4°
Reaches altitude 10° 18:38:07 10° 165° (SSE) 1,609 8.9 -9.9°
Maximum altitude 18:41:33 76° 80° (E) 479 6.4 -10.7°
Drops below altitude 10° 18:44:59 10° 353° (N) 1,607 9.5 -11.5°
Sets 18:47:02 0° 352° (N) 2,484 10.5 -12.0°
